Location: Maddington
(51.2000°N, 1.9167°W)
Time: 15:30:02
(UTC+00:00)

Cosmos 1937 Rocket - Pass Details

Date: 18 September 2020
Orbit: 747 x 779 km, 74.0° (Epoch: 27 October)

Event Time Altitude Azimuth Distance (km) Brightness Sun altitude
Rises 18:54:07 0° 188° (S) 3,233 6.7 -7.0°
Reaches altitude 10° 18:56:32 10° 183° (S) 2,306 5.9 -7.4°
Maximum altitude 19:01:36 54° 108° (ESE) 930 3.6 -8.2°
Drops below altitude 10° 19:06:41 10° 32° (NNE) 2,302 5.8 -9.0°
Sets 19:09:05 0° 28° (NNE) 3,226 6.6 -9.3°
